Orbital Elements at Epoch 2459000.5 (2020-May-31.0) TDB
Reference: JPL 19 (heliocentric ecliptic J2000)
Element | Value | Uncertainty (1-sigma) | Units |
e | .2921997576454826 | 6.2868e-08 | |
a | 2.785663478371556 | 1.2505e-08 | au |
q | 1.971693285109515 | 1.7493e-07 | au |
i | 8.182379284645474 | 7.3877e-06 | deg |
node | 9.144366824990122 | 3.3798e-05 | deg |
peri | 56.41295518253695 | 3.6213e-05 | deg |
M | 193.5334129254877 | 1.0265e-05 | deg |
tp | 2459785.764523289590 (2022-Jul-25.26452329) | 5.1167e-05 | TDB |
period | 1698.210033330681 4.65 | 1.1435e-05 3.131e-08 | d yr |
n | .2119879125280727 | 1.4275e-09 | deg/d |
Q | 3.599633671633596 | 1.6159e-08 | au |
|
| | Orbit Determination Parameters
Additional Information
|